Simultaneous Nadir Overpasses (SNOs) Predictions

Prediction of SNOs between GOES-17 and TERRA Satellite Orbit:

Table of predicted SNOs for the next 14.0 days since TLE Epoch: 2/22/2020
Index Date Time (GOES-17) GOES-17 Lat,Lon TERRA Lat,Lon Distance(km) Time Diff (sec)
1 02/22/2020 07:47:03 0.02,-137.21 -0.49,-139.55 266.12 80
2 02/24/2020 07:37:32 0.01,-137.20 0.11,-136.59 69.20 80
3 02/26/2020 07:25:21 0.01,-137.19 0.77,-133.64 404.35 80
4 02/26/2020 19:43:56 -0.01,-137.20 0.34,-138.79 181.20 80
5 02/28/2020 19:34:24 -0.01,-137.18 -0.31,-135.84 153.68 80
6 02/29/2020 07:53:08 0.01,-137.17 -0.78,-141.03 438.21 80
7 03/01/2020 19:22:11 -0.01,-137.16 -0.96,-132.88 488.00 80
8 03/02/2020 07:40:54 0.02,-137.14 -0.19,-138.06 104.02 80
9 03/04/2020 07:31:20 0.02,-137.11 0.46,-135.09 229.63 80
10 03/04/2020 19:49:55 -0.02,-137.11 0.62,-140.25 356.48 80
11 03/06/2020 19:37:39 -0.02,-137.07 0.03,-137.27 23.31 80




NCC Satellite Simultaneous Nadir Overpasses (SNOs) Prediction Service
